EW0235 Weather Reports


time (UTC)temp
C
wind
direction
speed
KPH
gust
KPH
rain 1hr
cm
rain 24hr
cm
rain mn
cm
humidity
%
barometer
mb
20260509123006 15 238 0.0 0.0 0.00 0.00 0.00 94 1011.8
20260509121501 15 238 0.0 0.0 0.00 0.00 0.00 94 1011.6
20260509120002 15 238 0.0 0.0 0.00 0.00 0.00 94 1011.5
20260509114600 15 238 0.0 0.0 0.00 0.00 0.00 94 1011.8
20260509113101 15 238 0.0 0.0 0.00 0.00 0.00 94 1011.6
20260509111559 15 237 0.0 0.0 0.00 0.00 0.00 94 1011.8
20260509104558 15 237 0.0 0.0 0.00 0.00 0.00 94 1011.4
20260509103103 15 237 0.0 0.0 0.00 0.00 0.00 94 1011.4
20260509101601 15 237 0.0 0.0 0.00 0.00 0.00 94 1011.4
20260509100055 15 237 0.0 0.0 0.00 0.00 0.00 94 1011.9
20260509094557 15 237 0.0 0.0 0.00 0.00 0.00 94 1012.2
20260509093056 14 237 0.0 0.0 0.00 0.00 0.00 94 1012.2
20260509091624 14 237 0.0 0.0 0.00 0.00 0.00 94 1011.7
20260509090055 14 237 0.0 0.0 0.00 0.00 0.00 94 1011.8
20260509084554 14 237 0.0 0.0 0.00 0.00 0.00 94 1011.8
20260509083055 14 237 0.0 0.0 0.00 0.00 0.00 94 1011.8
20260509081555 14 237 0.0 0.0 0.00 0.00 0.00 94 1011.4
20260509080104 14 237 0.0 0.0 0.00 0.00 0.00 93 1011.7
20260509074554 14 237 0.0 0.0 0.00 0.00 0.00 93 1011.7
20260509073116 14 237 0.0 0.0 0.00 0.00 0.00 92 1011.3
20260509071548 14 237 0.0 0.0 0.00 0.00 0.00 92 1011.3
20260509070048 15 237 0.0 0.0 0.00 0.00 0.00 91 1011.4
20260509064544 15 237 0.0 0.0 0.00 0.00 0.00 91 1011.8
20260509063042 15 237 0.0 0.0 0.00 0.00 0.00 92 1012.1
20260509061539 15 237 0.0 0.0 0.00 0.00 0.00 92 1012.5
20260509060047 15 237 0.0 0.0 0.00 0.00 0.00 92 1012.8
20260509054536 15 237 0.0 0.0 0.00 0.00 0.00 91 1013.1
20260509053036 15 237 0.0 0.0 0.00 0.00 0.00 91 1013.0
20260509051534 15 237 0.0 0.0 0.00 0.00 0.00 90 1012.9
20260509050034 15 237 0.0 0.0 0.00 0.00 0.00 89 1013.0
20260509044536 15 237 0.0 0.0 0.00 0.00 0.00 88 1013.3
20260509043035 15 237 0.0 0.0 0.00 0.00 0.00 88 1013.2
20260509041528 15 237 0.0 0.0 0.00 0.00 0.00 87 1013.2
20260509040025 15 237 0.0 0.0 0.00 0.00 0.00 86 1013.5
20260509034536 16 237 0.0 0.0 0.00 0.00 0.00 84 1013.5
20260509033025 16 237 0.0 0.0 0.00 0.00 0.00 84 1013.8
20260509031524 16 237 0.0 0.0 0.00 0.00 0.00 83 1013.9
20260509030022 16 237 0.0 0.0 0.00 0.00 0.00 82 1013.9
20260509024523 16 237 0.0 0.0 0.00 0.00 0.00 81 1014.0
20260509023022 17 237 0.0 0.0 0.00 0.00 0.00 80 1014.1
20260509021528 17 237 0.0 0.0 0.00 0.00 0.00 79 1014.1
20260509020021 17 237 0.0 0.0 0.00 0.00 0.00 78 1014.1
20260509014521 17 237 0.0 0.0 0.00 0.00 0.00 77 1013.8
20260509013020 17 237 0.0 0.0 0.00 0.00 0.00 77 1014.0
20260509011521 17 237 0.0 0.0 0.00 0.00 0.00 76 1013.7
20260509010029 18 237 0.0 0.0 0.00 0.00 0.00 75 1013.7
20260509004519 18 237 0.0 0.0 0.00 0.00 0.00 74 1013.5
20260509003022 18 237 0.0 0.0 0.00 0.00 0.00 73 1013.9
20260509001519 18 237 0.0 0.0 0.00 0.00 0.00 72 1013.8
20260509000018 18 237 0.0 0.0 0.00 0.00 0.00 72 1013.7
20260508234517 18 237 0.0 0.0 0.00 0.00 0.00 71 1013.7
20260508233017 18 237 0.0 0.0 0.00 0.00 0.00 70 1013.5
20260508231517 19 237 0.0 0.0 0.00 0.00 0.00 70 1013.5
20260508230022 19 237 0.0 0.0 0.00 0.00 0.00 67 1013.3
20260508224518 20 237 0.0 0.0 0.00 0.00 0.00 65 1013.3
20260508223033 20 237 0.0 0.0 0.00 0.00 0.00 66 1013.4
20260508221514 20 237 0.0 0.0 0.00 0.00 0.00 63 1013.6
20260508220019 20 237 0.0 0.0 0.00 0.00 0.00 62 1013.5
20260508214512 20 237 0.0 0.0 0.00 0.00 0.00 61 1013.6
20260508213015 20 360 0.0 0.0 0.00 0.00 0.00 61 1013.5
20260508211511 20 351 0.0 0.0 0.00 0.00 0.00 60 1013.5
20260508210012 20 351 0.0 0.0 0.00 0.00 0.00 60 1013.7
20260508204520 20 352 0.0 0.0 0.00 0.00 0.00 57 1013.6
20260508203010 21 352 0.0 0.0 0.00 0.00 0.00 59 1013.7
20260508201511 21 352 0.0 0.0 0.00 0.00 0.00 60 1013.9
20260508200009 21 352 0.0 0.0 0.00 0.00 0.00 56 1013.5
20260508194507 21 352 0.0 0.0 0.00 0.00 0.00 57 1014.1
20260508193005 21 352 0.0 0.0 0.00 0.00 0.00 56 1014.3
20260508191508 21 42 0.0 0.0 0.00 0.00 0.00 55 1014.5
20260508190005 21 42 0.0 0.0 0.00 0.00 0.00 54 1014.9
20260508184504 21 43 0.0 0.0 0.00 0.00 0.00 53 1015.2
20260508183002 21 199 0.0 0.0 0.00 0.00 0.00 55 1015.2
20260508181501 20 199 0.0 0.0 0.00 0.00 0.00 54 1015.3
20260508174603 20 56 0.0 0.0 0.00 0.00 0.00 56 1015.6
20260508173057 20 20 0.0 0.0 0.00 0.00 0.00 59 1015.9
20260508171557 20 304 0.0 0.0 0.00 0.00 0.00 59 1016.2
20260508170054 20 355 0.0 0.0 0.00 0.00 0.00 60 1016.4
20260508164552 19 331 0.0 0.0 0.00 0.00 0.00 62 1016.7
20260508163049 18 335 0.0 0.0 0.00 0.00 0.00 67 1016.8
20260508161546 18 335 0.0 0.0 0.00 0.00 0.00 66 1017.2
20260508154542 17 34 0.0 0.0 0.00 0.00 0.00 66 1017.6
20260508153045 17 34 0.0 0.0 0.00 0.00 0.00 73 1017.7
20260508151540 17 34 0.0 0.0 0.00 0.00 0.00 74 1017.8
20260508150037 17 34 0.0 0.0 0.00 0.00 0.00 71 1017.8
20260508144532 16 48 0.0 0.0 0.00 0.00 0.00 74 1017.9
20260508143036 16 60 0.0 0.0 0.00 0.00 0.00 77 1017.8
20260508141536 15 360 0.0 0.0 0.00 0.00 0.00 80 1017.7
20260508140023 15 359 0.0 0.0 0.00 0.00 0.00 83 1017.7
20260508134528 13 359 0.0 0.0 0.00 0.10 0.00 89 1017.7
20260508133017 12 359 0.0 0.0 0.00 0.10 0.00 90 1017.9
20260508131514 12 359 0.0 0.0 0.00 0.10 0.00 93 1017.8
20260508130016 12 340 0.0 0.0 0.00 0.10 0.00 96 1017.7
20260508124512 11 340 0.0 0.0 0.00 0.33 0.00 97 1017.5